Regional Weather Roundup
Issued by NWS

Home | Current Version | Previous Version | Text Only | Print | Product List | Glossary On
Versions: 1 2 3 4 5 6 7 8 9 10 11 12 13 14 15 16 17 18 19 20 21 22 23 24 25 26 27 28 29 30 31 32 33 34 35 36 37 38 39 40 41 42 43 44 45 46 47 48 49 50
000
ASPQ40 PGUM 030714
RWRPQ
WEATHER ROUNDUP FOR THE MARIANAS AND MICRONESIA
NATIONAL WEATHER SERVICE TIYAN GU
500 PM CHST MON AUG 03 2015

GUZ001>004-030800-
MARIANA ISLANDS-

CITY           SKY/WX    TMP DP  RH WIND       PRES   REMARKS
GUAM AIRPORT   HVY RAIN  81  77  89 SW10G25   29.59R FOG
ANDERSEN AFB   LGT RAIN  84  77  79 SW18      29.59R HX  94
ROTA AIRPORT   NOT AVBL
TINIAN AP      NOT AVBL
SAIPAN AP      NOT AVBL

$$

PMZ161-030800-
REPUBLIC OF PALAU-

CITY           SKY/WX    TMP DP  RH WIND       PRES   REMARKS
KOROR AP       CLOUDY    84  75  74 W16G23    29.71F HX  92
KOROR WSO      CLOUDY    84  75  74 W12       29.73F HX  92

$$

PMZ171>174-030800-
FEDERATED STATES OF MICRONESIA-

CITY           SKY/WX    TMP DP  RH WIND       PRES   REMARKS
YAP AIRPORT    HVY RAIN  79  77  94 SW14G24   29.67S
CHUUK AP       CLOUDY    84  79  84 S12       29.74R HX  96
POHNPEI AP     NOT AVBL
POHNPEI WSO    CLOUDY    84  77  79 W3        29.81R HX  94
KOSRAE AP      NOT AVBL

$$

PMZ181-030800-
REPUBLIC OF THE MARSHALL ISLANDS-

CITY           SKY/WX    TMP DP  RH WIND       PRES   REMARKS
KWAJALEIN AP   PTCLDY    86  75  70 NE8       29.75R HX  95
MAJURO AP      CLOUDY    82  77  83 NE6       29.72R HX  91
MAJURO WSO     CLOUDY    86  77  74 E6        29.72R HX  97

$$



USA.gov is the U.S. government's official web portal to all federal, state and local government web resources and services.